Weather History for Big Bear City, CA

Change the Weather History Date:

Sunday, October 27, 2013

  Actual Average (KBUO) Record (KBUO)
Temperature  
Mean Temperature 44 °F -  
Max Temperature 59 °F 71 °F 78 °F (1999)
Min Temperature 28 °F 47 °F 39 °F (1996)
Degree Days  
Heating Degree Days 22    
Moisture  
Dew Point 23 °F    
Average Humidity 49    
Maximum Humidity 70    
Minimum Humidity 22    
Precipitation  
Precipitation 0.00 in - - ()
Sea Level Pressure  
Sea Level Pressure 30.10 in    
Wind  
Wind Speed 4 mph (WSW)    
Max Wind Speed 20 mph    
Max Gust Speed 30 mph    
Visibility 10 miles    
Events      
Averages and records for this station are not official NWS values.
T = Trace of Precipitation, MM = Missing Value Source: NWS Daily Summary

Daily Weather History Graph

Daily Weather History Graph

Search for Another Location

Airport:

Trip Planner

Search our weather history database for the weather conditions in past years. The results will help you decide how hot, cold, wet, or windy it might be!

Date:

Astronomy

Oct. 27, 2013 Rise Set
Actual Time 7:03 AM PDT 5:58 PM PDT
Civil Twilight 6:37 AM PDT 6:24 PM PDT
Nautical Twilight 6:07 AM PDT 6:54 PM PDT
Astronomical Twilight 5:38 AM PDT 7:23 PM PDT
Moon 12:21 AM PDT (10/27) 1:54 PM PDT (10/27)
Length of Visible Light 11h 47m
Length of Day
10h 55m
Last Quarter, 42% of the Moon is Illuminated
Oct 27
Last Quarter
Nov 3
New
Nov 9
First Quarter
Nov 17
Full
Nov 25
Last Quarter

Hourly Weather History & Observations

Time (PDT) Temp. Windchill Dew Point Humidity Pressure Visibility Wind Dir Wind Speed Gust Speed Precip Events Conditions
12:15 AM 33.8 °F - 21.2 °F 60% 30.28 in 10.0 mi Calm Calm - N/A   Clear
12:35 AM 33.8 °F - 21.2 °F 60% 30.28 in 10.0 mi Calm Calm - N/A   Clear
12:55 AM 32.0 °F - 21.2 °F 64% 30.27 in 10.0 mi Calm Calm - N/A   Clear
1:15 AM 32.0 °F - 19.4 °F 60% 30.27 in 10.0 mi Calm Calm - N/A   Clear
1:35 AM 32.0 °F - 19.4 °F 60% 30.27 in 10.0 mi Calm Calm - N/A   Clear
1:55 AM 32.0 °F - 19.4 °F 60% 30.26 in 10.0 mi Calm Calm - N/A   Clear
2:15 AM 32.0 °F - 19.4 °F 60% 30.26 in 10.0 mi Calm Calm - N/A   Clear
2:35 AM 30.2 °F - 19.4 °F 64% 30.25 in 10.0 mi Calm Calm - N/A   Clear
2:55 AM 30.2 °F - 19.4 °F 64% 30.24 in 10.0 mi Calm Calm - N/A   Clear
3:15 AM 30.2 °F - 19.4 °F 64% 30.23 in 10.0 mi Calm Calm - N/A   Clear
3:35 AM 30.2 °F - 19.4 °F 64% 30.23 in 10.0 mi Calm Calm - N/A   Clear
3:55 AM 30.2 °F - 19.4 °F 64% 30.22 in 10.0 mi Calm Calm - N/A   Clear
4:15 AM 30.2 °F - 19.4 °F 64% 30.22 in 10.0 mi Calm Calm - N/A   Clear
4:35 AM 28.4 °F - 19.4 °F 69% 30.21 in 10.0 mi Calm Calm - N/A   Clear
4:55 AM 28.4 °F - 19.4 °F 69% 30.21 in 10.0 mi Calm Calm - N/A   Clear
5:15 AM 28.4 °F - 19.4 °F 69% 30.21 in 10.0 mi Calm Calm - N/A   Clear
5:35 AM 28.4 °F - 19.4 °F 69% 30.20 in 10.0 mi Calm Calm - N/A   Clear
5:55 AM 28.4 °F - 19.4 °F 69% 30.20 in 10.0 mi Calm Calm - N/A   Clear
6:15 AM 28.4 °F - 19.4 °F 69% 30.20 in 10.0 mi Calm Calm - N/A   Clear
6:35 AM 28.4 °F - 19.4 °F 69% 30.20 in 10.0 mi Calm Calm - N/A   Clear
6:55 AM 28.4 °F - 19.4 °F 69% 30.20 in 10.0 mi Calm Calm - N/A   Clear
7:15 AM 28.4 °F - 19.4 °F 69% 30.20 in 10.0 mi Calm Calm - N/A   Clear
7:35 AM 28.4 °F - 19.4 °F 69% 30.20 in 10.0 mi Calm Calm - N/A   Clear
7:55 AM 30.2 °F - 19.4 °F 64% 30.20 in 10.0 mi Calm Calm - N/A   Clear
8:15 AM 32.0 °F - 21.2 °F 64% 30.20 in 10.0 mi Calm Calm - N/A   Clear
8:35 AM 35.6 °F 32.8 °F 24.8 °F 65% 30.20 in 10.0 mi WSW 3.5 mph - N/A   Clear
8:55 AM 41.0 °F 39.0 °F 28.4 °F 61% 30.20 in 10.0 mi West 3.5 mph - N/A   Clear
9:15 AM 44.6 °F 43.1 °F 26.6 °F 49% 30.20 in 10.0 mi West 3.5 mph - N/A   Clear
9:35 AM 50.0 °F - 26.6 °F 40% 30.19 in 10.0 mi Calm Calm - N/A   Clear
9:55 AM 53.6 °F - 23.0 °F 30% 30.18 in 10.0 mi West 3.5 mph - N/A   Clear
10:15 AM 55.4 °F - 23.0 °F 29% 30.18 in 10.0 mi West 8.1 mph - N/A   Clear
10:35 AM 59.0 °F - 23.0 °F 25% 30.17 in 10.0 mi WSW 6.9 mph - N/A   Clear
10:55 AM 59.0 °F - 21.2 °F 23% 30.17 in 10.0 mi SSW 9.2 mph - N/A   Clear
11:15 AM 59.0 °F - 21.2 °F 23% 30.16 in 10.0 mi SSW 5.8 mph - N/A   Clear
11:35 AM 59.0 °F - 21.2 °F 23% 30.16 in 10.0 mi SW 5.8 mph - N/A   Clear
11:55 AM 59.0 °F - 21.2 °F 23% 30.15 in 10.0 mi South 11.5 mph 18.4 mph N/A   Clear
12:15 PM 59.0 °F - 21.2 °F 23% 30.14 in 10.0 mi SW 10.4 mph - N/A   Clear
12:35 PM 59.0 °F - 19.4 °F 22% 30.13 in 10.0 mi SSW 12.7 mph 17.3 mph N/A   Clear
12:55 PM 59.0 °F - 21.2 °F 23% 30.11 in 10.0 mi WSW 6.9 mph 16.1 mph N/A   Clear
1:15 PM 59.0 °F - 21.2 °F 23% 30.10 in 10.0 mi West 11.5 mph 18.4 mph N/A   Clear
1:35 PM 59.0 °F - 19.4 °F 22% 30.09 in 10.0 mi West 11.5 mph 19.6 mph N/A   Clear
1:55 PM 59.0 °F - 19.4 °F 22% 30.08 in 10.0 mi SW 10.4 mph 20.7 mph N/A   Clear
2:15 PM 57.2 °F - 19.4 °F 23% 30.08 in 10.0 mi SW 12.7 mph 18.4 mph N/A   Clear
2:35 PM 57.2 °F - 19.4 °F 23% 30.07 in 10.0 mi WSW 12.7 mph 17.3 mph N/A   Clear
2:55 PM 57.2 °F - 19.4 °F 23% 30.06 in 10.0 mi WSW 9.2 mph 19.6 mph N/A   Clear
3:15 PM 55.4 °F - 19.4 °F 25% 30.05 in 10.0 mi SW 8.1 mph 25.3 mph N/A   Clear
3:35 PM 55.4 °F - 21.2 °F 26% 30.05 in 10.0 mi WSW 10.4 mph 19.6 mph N/A   Clear
3:55 PM 53.6 °F - 23.0 °F 30% 30.04 in 10.0 mi WSW 12.7 mph 18.4 mph N/A   Clear
4:15 PM 53.6 °F - 24.8 °F 33% 30.03 in 10.0 mi West 11.5 mph 20.7 mph N/A   Clear
4:35 PM 53.6 °F - 26.6 °F 35% 30.02 in 10.0 mi West 17.3 mph 24.2 mph N/A   Clear
4:55 PM 51.8 °F - 26.6 °F 38% 30.01 in 10.0 mi West 18.4 mph 21.9 mph N/A   Clear
5:15 PM 51.8 °F - 26.6 °F 38% 30.00 in 10.0 mi West 16.1 mph 24.2 mph N/A   Clear
5:35 PM 50.0 °F - 26.6 °F 40% 29.98 in 10.0 mi West 16.1 mph 23.0 mph N/A   Clear
5:55 PM 50.0 °F - 26.6 °F 40% 29.98 in 10.0 mi West 12.7 mph 20.7 mph N/A   Clear
6:15 PM 46.4 °F 42.4 °F 26.6 °F 46% 29.98 in 10.0 mi WSW 8.1 mph 18.4 mph N/A   Clear
6:35 PM 46.4 °F 40.7 °F 28.4 °F 50% 29.98 in 10.0 mi West 12.7 mph 16.1 mph N/A   Clear
6:55 PM 44.6 °F 38.8 °F 28.4 °F 53% 29.98 in 10.0 mi West 11.5 mph - N/A   Clear
7:15 PM 44.6 °F 39.2 °F 26.6 °F 49% 29.97 in 10.0 mi West 10.4 mph 17.3 mph N/A   Clear
7:35 PM 44.6 °F 38.8 °F 24.8 °F 46% 29.96 in 10.0 mi West 11.5 mph 16.1 mph N/A   Clear
7:55 PM 42.8 °F 36.6 °F 24.8 °F 49% 29.95 in 10.0 mi West 11.5 mph - N/A   Clear
8:15 PM 42.8 °F 37.0 °F 26.6 °F 53% 29.94 in 10.0 mi West 10.4 mph - N/A   Clear
8:35 PM 42.8 °F 38.6 °F 26.6 °F 53% 29.94 in 10.0 mi WSW 6.9 mph - N/A   Clear
8:55 PM 42.8 °F 36.2 °F 28.4 °F 57% 29.92 in 10.0 mi SW 12.7 mph 21.9 mph N/A   Clear
9:15 PM 42.8 °F 36.6 °F 28.4 °F 57% 29.92 in 10.0 mi SW 11.5 mph 24.2 mph N/A   Clear
9:35 PM 42.8 °F 37.5 °F 28.4 °F 57% 29.91 in 10.0 mi WSW 9.2 mph 20.7 mph N/A   Clear
9:55 PM 42.8 °F 35.8 °F 28.4 °F 57% 29.90 in 10.0 mi West 13.8 mph 23.0 mph N/A   Clear
10:15 PM 42.8 °F - 28.4 °F 57% 29.90 in 10.0 mi Calm Calm - N/A   Clear
10:35 PM 42.8 °F 35.1 °F 28.4 °F 57% 29.86 in 10.0 mi SW 16.1 mph 27.6 mph N/A   Clear
10:55 PM 42.8 °F 35.8 °F 28.4 °F 57% 29.84 in 10.0 mi WSW 13.8 mph 27.6 mph N/A   Clear
11:15 PM 41.0 °F 32.8 °F 28.4 °F 61% 29.84 in 10.0 mi WSW 16.1 mph 29.9 mph N/A   Clear
11:35 PM 41.0 °F 33.9 °F 30.2 °F 65% 29.84 in 10.0 mi WSW 12.7 mph 25.3 mph N/A   Clear
11:55 PM 41.0 °F 31.9 °F 32.0 °F 70% 29.84 in 10.0 mi West 19.6 mph 26.5 mph N/A   Clear